Total_Precipitation_Accumulation
0.00 0.00 0.00 0.00 0.00 0.00 0.00 0.00 0.00 0.00 0.00 0.00 0.00 0.02 0.10 0.15 0.04 0.06 0.04 0.14 0.05 0.01 0.02 0.03 0.02 0.02 0.01 0.06 0.03 0.09 0.23 0.19 0.34 0.31 0.16 0.14 0.10 0.07 0.10 0.18 0.07 0.23 0.11 0.12
0.00 0.00 0.00 0.00 0.00 0.00 0.00 0.00 0.00 0.00 0.00 0.00 0.00 0.00 0.02 0.07 0.01 0.01 0.01 0.14 0.03 0.01 0.01 0.01 0.00 0.00 0.01 0.04 0.03 0.01 0.03 0.07 0.17 0.22 0.22 0.08 0.05 0.05 0.10 0.15 0.15 0.22 0.20 0.07
0.00 0.00 0.00 0.00 0.00 0.00 0.00 0.00 0.00 0.00 0.00 0.00 0.00 0.00 0.02 0.02 0.02 0.06 0.01 0.00 0.00 0.00 0.00 0.00 0.00 0.00 0.01 0.01 0.01 0.01 0.01 0.03 0.04 0.11 0.21 0.14 0.16 0.10 0.09 0.13 0.12 0.11 0.11 0.05
0.00 0.00 0.00 0.00 0.00 0.00 0.00 0.00 0.00 0.00 0.00 0.00 0.00 0.01 0.09 0.03 0.01 0.04 0.02 0.00 0.01 0.00 0.00 0.00 0.01 0.01 0.02 0.03 0.03 0.05 0.03 0.03 0.01 0.02 0.05 0.04 0.09 0.07 0.10 0.10 0.05 0.03 0.01 0.07
0.00 0.00 0.00 0.00 0.00 0.00 0.01 0.00 0.00 0.00 0.00 0.01 0.01 0.00 0.08 0.01 0.01 0.01 0.01 0.00 0.01 0.01 0.00 0.00 0.01 0.01 0.02 0.04 0.04 0.03 0.03 0.04 0.02 0.01 0.02 0.03 0.06 0.07 0.05 0.02 0.01 0.01 0.03 0.03
0.00 0.00 0.00 0.00 0.00 0.00 0.00 0.00 0.00 0.00 0.00 0.01 0.02 0.02 0.04 0.01 0.00 0.02 0.02 0.01 0.01 0.02 0.03 0.04 0.05 0.02 0.03 0.05 0.05 0.06 0.04 0.04 0.07 0.08 0.07 0.04 0.09 0.07 0.03 0.03 0.04 0.04 0.03 0.17
0.00 0.00 0.00 0.00 0.00 0.00 0.00 0.00 0.00 0.02 0.00 0.00 0.00 0.01 0.02 0.02 0.05 0.12 0.10 0.01 0.02 0.00 0.00 0.01 0.02 0.02 0.02 0.06 0.04 0.03 0.06 0.14 0.12 0.09 0.08 0.09 0.08 0.07 0.06 0.09 0.20 0.21 0.18 0.30
0.01 0.01 0.00 0.00 0.00 0.00 0.00 0.00 0.00 0.08 0.06 0.05 0.03 0.01 0.01 0.01 0.01 0.00 0.00 0.00 0.00 0.00 0.00 0.01 0.03 0.05 0.06 0.04 0.03 0.02 0.08 0.19 0.21 0.16 0.13 0.16 0.19 0.20 0.22 0.27 0.42 0.44 0.34 0.31
0.02 0.00 0.00 0.00 0.00 0.00 0.00 0.00 0.00 0.01 0.02 0.05 0.06 0.00 0.00 0.00 0.00 0.00 0.00 0.00 0.00 0.01 0.04 0.05 0.02 0.03 0.06 0.05 0.05 0.09 0.10 0.09 0.14 0.16 0.16 0.21 0.28 0.31 0.43 0.46 0.37 0.36 0.27 0.16
0.04 0.07 0.01 0.00 0.00 0.00 0.00 0.00 0.00 0.00 0.02 0.04 0.00 0.00 0.00 0.01 0.00 0.00 0.00 0.00 0.00 0.00 0.00 0.00 0.01 0.00 0.01 0.01 0.06 0.07 0.03 0.06 0.12 0.16 0.16 0.27 0.41 0.42 0.41 0.33 0.43 0.38 0.37 0.38
0.00 0.03 0.04 0.00 0.00 0.00 0.00 0.00 0.00 0.00 0.00 0.01 0.01 0.00 0.00 0.01 0.00 0.00 0.00 0.00 0.00 0.00 0.00 0.00 0.01 0.01 0.01 0.00 0.02 0.09 0.15 0.35 0.35 0.43 0.53 0.45 0.47 0.62 0.69 0.63 0.60 0.58 0.55 0.55
0.00 0.00 0.00 0.00 0.00 0.00 0.00 0.00 0.00 0.00 0.00 0.00 0.01 0.00 0.00 0.00 0.00 0.00 0.00 0.00 0.00 0.00 0.00 0.00 0.00 0.00 0.01 0.01 0.01 0.03 0.09 0.20 0.38 0.43 0.67 0.92 0.77 1.04 1.56 1.62 1.26 1.48 1.49 1.15
0.00 0.00 0.00 0.00 0.00 0.00 0.00 0.00 0.00 0.00 0.00 0.00 0.03 0.00 0.00 0.00 0.00 0.00 0.00 0.00 0.00 0.00 0.00 0.00 0.00 0.00 0.00 0.00 0.04 0.10 0.16 0.28 0.45 0.66 0.81 0.84 0.74 1.13 1.03 0.71 0.53 0.42 0.52 0.49
0.02 0.01 0.00 0.01 0.00 0.00 0.00 0.00 0.00 0.00 0.00 0.00 0.00 0.00 0.00 0.01 0.00 0.00 0.00 0.00 0.00 0.00 0.00 0.00 0.00 0.00 0.00 0.05 0.10 0.09 0.09 0.23 0.34 0.37 0.47 0.38 0.34 0.41 0.40 0.33 0.24 0.20 0.18 0.17
0.05 0.05 0.01 0.00 0.00 0.00 0.00 0.00 0.00 0.00 0.00 0.01 0.00 0.00 0.00 0.00 0.00 0.00 0.00 0.00 0.00 0.00 0.00 0.00 0.01 0.01 0.01 0.05 0.06 0.04 0.07 0.12 0.16 0.15 0.17 0.14 0.23 0.17 0.15 0.10 0.12 0.15 0.18 0.25
0.03 0.08 0.01 0.00 0.00 0.00 0.00 0.00 0.00 0.00 0.00 0.00 0.00 0.00 0.00 0.00 0.00 0.00 0.00 0.00 0.00 0.00 0.00 0.00 0.00 0.01 0.01 0.01 0.01 0.02 0.03 0.06 0.05 0.05 0.09 0.07 0.10 0.10 0.11 0.06 0.06 0.09 0.11 0.13
0.11 0.13 0.05 0.01 0.00 0.00 0.00 0.00 0.00 0.00 0.00 0.00 0.00 0.00 0.00 0.00 0.00 0.00 0.00 0.00 0.00 0.00 0.00 0.00 0.00 0.00 0.01 0.01 0.00 0.01 0.01 0.01 0.02 0.05 0.04 0.05 0.06 0.08 0.06 0.09 0.06 0.08 0.12 0.10
0.26 0.17 0.13 0.06 0.01 0.04 0.02 0.00 0.00 0.00 0.00 0.00 0.00 0.00 0.00 0.00 0.00 0.00 0.00 0.00 0.00 0.00 0.00 0.00 0.00 0.00 0.00 0.00 0.00 0.00 0.00 0.00 0.01 0.03 0.04 0.04 0.05 0.06 0.07 0.07 0.09 0.11 0.12 0.20
0.23 0.22 0.21 0.14 0.08 0.04 0.00 0.00 0.00 0.00 0.00 0.00 0.00 0.00 0.00 0.00 0.00 0.00 0.00 0.00 0.00 0.00 0.00 0.00 0.00 0.00 0.00 0.00 0.00 0.00 0.00 0.01 0.01 0.02 0.02 0.04 0.06 0.06 0.06 0.08 0.13 0.22 0.28 0.27
0.28 0.27 0.32 0.18 0.16 0.10 0.01 0.00 0.00 0.00 0.01 0.00 0.00 0.00 0.00 0.00 0.00 0.00 0.00 0.00 0.00 0.00 0.00 0.00 0.00 0.00 0.00 0.00 0.00 0.01 0.01 0.01 0.01 0.01 0.01 0.02 0.03 0.05 0.10 0.21 0.24 0.19 0.13 0.09
0.20 0.24 0.26 0.21 0.19 0.05 0.01 0.01 0.00 0.03 0.02 0.00 0.00 0.00 0.00 0.00 0.00 0.00 0.00 0.00 0.00 0.00 0.00 0.00 0.00 0.00 0.00 0.00 0.00 0.00 0.00 0.00 0.00 0.01 0.02 0.06 0.10 0.17 0.20 0.15 0.08 0.06 0.05 0.04
0.16 0.20 0.21 0.23 0.19 0.05 0.02 0.06 0.08 0.04 0.00 0.00 0.00 0.00 0.00 0.00 0.00 0.00 0.00 0.00 0.00 0.00 0.00 0.00 0.00 0.00 0.00 0.00 0.00 0.01 0.00 0.01 0.02 0.06 0.11 0.17 0.21 0.19 0.13 0.08 0.07 0.05 0.03 0.03
0.06 0.12 0.13 0.10 0.06 0.02 0.02 0.04 0.03 0.01 0.01 0.01 0.01 0.00 0.00 0.00 0.00 0.00 0.00 0.00 0.00 0.00 0.00 0.00 0.00 0.00 0.00 0.00 0.00 0.01 0.04 0.07 0.09 0.12 0.15 0.17 0.13 0.07 0.05 0.04 0.04 0.03 0.03 0.04
0.01 0.01 0.03 0.04 0.02 0.03 0.03 0.02 0.01 0.00 0.01 0.01 0.00 0.00 0.00 0.00 0.00 0.01 0.02 0.01 0.01 0.01 0.01 0.00 0.00 0.00 0.02 0.04 0.05 0.07 0.09 0.07 0.06 0.05 0.09 0.06 0.05 0.06 0.03 0.02 0.02 0.02 0.03 0.04
0.02 0.05 0.04 0.02 0.01 0.02 0.03 0.12 0.09 0.04 0.02 0.02 0.02 0.03 0.02 0.03 0.03 0.05 0.07 0.07 0.06 0.06 0.05 0.03 0.03 0.07 0.07 0.05 0.04 0.05 0.06 0.07 0.07 0.05 0.04 0.02 0.02 0.01 0.00 0.00 0.02 0.02 0.02 0.04
0.02 0.04 0.06 0.03 0.02 0.00 0.00 0.03 0.03 0.08 0.10 0.04 0.04 0.04 0.08 0.12 0.07 0.05 0.06 0.08 0.15 0.22 0.18 0.09 0.06 0.04 0.05 0.08 0.11 0.09 0.07 0.06 0.05 0.02 0.01 0.02 0.00 0.00 0.01 0.01 0.03 0.05 0.05 0.04